Regional Weather Roundup
Issued by NWS

Home | Current Version | Previous Version | Text Only | Print | Product List | Glossary Off
Versions: 1 2 3 4 5 6 7 8 9 10 11 12 13 14 15 16 17 18 19 20 21 22 23 24 25 26 27 28 29 30 31 32 33 34 35 36 37 38 39 40 41 42 43 44 45 46 47 48 49 50

000
ASUS43 KOAX 011410
RWRNE

WEATHER ROUNDUP FOR NEBRASKA
NATIONAL WEATHER SERVICE OMAHA NE
800 AM CST SUN FEB 01 2015

NOTES: SATELLITE DATA IS BEING USED TO AUGMENT CLOUD COVER ABOVE
       12000 FEET.
       "FAIR" INDICATES FEW OR NO CLOUDS BELOW 12,000 FEET WITH NO
       SIGNIFICANT WEATHER AND/OR OBSTRUCTIONS TO VISIBILITY.

  * THESE STATIONS DO NOT REPORT WEATHER SUCH AS RAIN...SNOW OR FOG.

NEZ001>004-019>022-054>056-011500-
NEBRASKA PANHANDLE

CITY           SKY/WX    TMP DP  RH WIND       PRES   REMARKS
SCOTTSBLUFF    CLOUDY    17  11  77 N13       30.19R WCI   4
ALLIANCE       CLOUDY     6   0  76 N18       30.18R WCI -13
CHADRON        LGT SNOW   6   1  80 N9        30.30R WCI  -8
KIMBALL        PTCLDY    17  11  78 N23G30    30.07R WCI  -1
SIDNEY         MOCLDY    11   8  88 N16       30.13R FOG     WCI  -6
$$

NEZ057>060-069>072-079>082-011500-
SOUTHWEST NEBRASKA

CITY           SKY/WX    TMP DP  RH WIND       PRES   REMARKS
NORTH PLATTE   CLOUDY     9   2  73 N21G30    30.17R WCI -11
IMPERIAL       CLOUDY    12   5  73 N26       30.17R WCI  -8
LEXINGTON      CLOUDY    11   7  82 N22G28    30.13R HAZE    WCI  -8
MCCOOK         CLOUDY    13   6  74 N28G33    30.14R WCI  -8
OGALLALA       CLOUDY    11   6  79 N20G26    30.19R WCI  -7
$$

NEZ005>010-023>029-035>040-094-011500-
NORTH CENTRAL NEBRASKA

CITY           SKY/WX    TMP DP  RH WIND       PRES   REMARKS
VALENTINE      LGT SNOW   2  -3  80 N23G33    30.26R WCI -21
AINSWORTH      LGT SNOW   3  -2  81 N28G37    30.22R WCI -21
BROKEN BOW     CLOUDY     7   2  80 N30G38    30.13R BLWGSNOWWCI -16
O`NEILL        LGT SNOW   4   0  84 N24G33    30.19R VSB 1   WCI -18
ORD            LGT SNOW   6   1  80 N24G38    30.14R VSB 3/4 WCI -16
THEDFORD       LGT SNOW   6   1  81 N23G29    30.19R WCI -16
$$

NEZ041-046>049-061>064-073>077-083>087-011500-
SOUTH CENTRAL NEBRASKA

CITY           SKY/WX    TMP DP  RH WIND       PRES   REMARKS
GRAND ISLAND   BLWGSNOW   9   5  84 NW29G37   30.09R VSB 1/4 WCI -13
AURORA         LGT SNOW  10   8  89 N30G39    30.05R VSB 3/4 WCI -12
HASTINGS       FOG       10   6  84 N35G47    30.06R VSB 1/2 WCI -13
HEBRON         SNOW      16  12  84 NW18G25   29.99R VSB 1/2 WCI   0
HOLDREGE       LGT SNOW  11   7  83 N25G33    30.09R WCI  -9
KEARNEY *      CLOUDY     9   3  78 N26G38    30.10R VSB 1/2 WCI -13
YORK           SNOW      14  10  85 N21G30    30.02R VSB 1/2 WCI  -4
$$

NEZ011>018-030>034-042>045-011500-
NORTHEAST NEBRASKA

CITY           SKY/WX    TMP DP  RH WIND       PRES   REMARKS
NORFOLK        HAZE      11   6  81 N28G36    30.08R VSB 3/4 WCI -10
ALBION         LGT SNOW   7   1  76 N24G36    30.09R VSB 1   WCI -14
BLAIR          SNOW      23  20  89 N21G35    29.90R VSB 1/2 WCI   8
FREMONT        LGT SNOW  22  19  91 N16G26    29.98R VSB 3/4 WCI   8
TEKAMAH        SNOW      21  18  88 N32       29.97R VSB 1/2 WCI   2
WAYNE          LGT SNOW  13  10  84 N31G38    30.07R VSB 3/4 WCI  -8
$$

NEZ050>053-065>068-078-088>093-011500-
SOUTHEAST NEBRASKA

CITY           SKY/WX    TMP DP  RH WIND       PRES   REMARKS
LINCOLN        LGT SNOW  22  18  85 N32G44    29.95R VSB 3/4 WCI   3
OMAHA EPPLEY   SNOW      23  21  92 N26G33    29.90R VSB 1/2 WCI   6
BEATRICE       SNOW      24  22  93 N20       29.90R VSB 1/2 WCI   9
FALLS CITY     LGT SNOW  32  31  96 NW10      29.78R FOG     WCI  24
NEBRASKA CITY  LGT SNOW  28  28 100 N20G26    29.82R VSB 3/4 WCI  15
PLATTSMOUTH    LGT SNOW  26  24  92 N16       29.86R WCI  14
$$

NEZ044-045-051>053-067-011500-
OMAHA AREA

CITY           SKY/WX    TMP DP  RH WIND       PRES   REMARKS
OMAHA EPPLEY   SNOW      23  21  92 N26G33    29.90R VSB 1/2 WCI   6
BLAIR          SNOW      23  20  89 N21G35    29.90R VSB 1/2 WCI   8
FREMONT        LGT SNOW  22  19  91 N16G26    29.98R VSB 3/4 WCI   8
MILLARD        LGT SNOW  25  21  86 N5        29.91R WCI  19
OFFUTT AFB     LGT SNOW  25  21  86 N15G24    29.88R FOG     WCI  12
PLATTSMOUTH    LGT SNOW  26  24  92 N16       29.86R WCI  14
WAHOO          LGT SNOW  21  18  86 N35       29.95R VSB 3/4 WCI   2
$$



USA.gov is the U.S. government's official web portal to all federal, state and local government web resources and services.